KLM82T SGAS-SAEZ

Flight info

Callsign KLM82T
Flight time N/A
Altitude 38000
Route ITAPE ASATI UP526 GEMSU UN785 GUA UZ129 PAGON PAGON7X
Aircraft B77W/H-SDE1E2E3FGHIJ2J3J4J5M1RWXY/LB1D1

Departure

Time N/A
Airport Silvio Pettirossi International Airport (SGAS)

Arrival

Time 2026-05-03 20:49
Airport Ezeiza International Airport - Ministro Pistarini (SAEZ)
Time Latitude Longitude Altitude Speed Heading
2026-05-03 20:15 -32.51266 -58.43343 38133 ft 437 kts 201°
2026-05-03 20:15 -32.57088 -58.45446 38137 ft 437 kts 201°
2026-05-03 20:16 -32.62869 -58.47537 38136 ft 437 kts 201°
2026-05-03 20:16 -32.68697 -58.49647 38131 ft 437 kts 201°
2026-05-03 20:17 -32.74515 -58.51757 38117 ft 438 kts 201°
2026-05-03 20:17 -32.80343 -58.53873 38123 ft 438 kts 202°
2026-05-03 20:18 -32.86126 -58.55977 38113 ft 438 kts 201°
2026-05-03 20:18 -32.91002 -58.57752 38102 ft 438 kts 201°
2026-05-03 20:19 -32.97771 -58.60220 38105 ft 438 kts 201°
2026-05-03 20:19 -33.03755 -58.61786 38103 ft 445 kts 192°
2026-05-03 20:20 -33.09923 -58.62501 38109 ft 446 kts 191°
2026-05-03 20:20 -33.16094 -58.63177 38114 ft 446 kts 191°
2026-05-03 20:21 -33.22270 -58.63879 38123 ft 445 kts 191°
2026-05-03 20:21 -33.28400 -58.64592 38122 ft 446 kts 191°
2026-05-03 20:22 -33.34522 -58.65307 37926 ft 438 kts 191°
2026-05-03 20:22 -33.37518 -58.65654 37929 ft 426 kts 191°
2026-05-03 20:22 -33.40442 -58.65993 37508 ft 420 kts 191°
2026-05-03 20:22 -33.43343 -58.66334 36918 ft 418 kts 191°
2026-05-03 20:23 -33.46240 -58.66678 36202 ft 420 kts 191°
2026-05-03 20:23 -33.49178 -58.67029 35402 ft 430 kts 191°
2026-05-03 20:23 -33.52135 -58.67386 34541 ft 443 kts 191°
2026-05-03 20:23 -33.55265 -58.67760 33478 ft 451 kts 190°
2026-05-03 20:24 -33.58399 -58.68128 32395 ft 454 kts 190°
2026-05-03 20:24 -33.61552 -58.68495 31387 ft 455 kts 190°
2026-05-03 20:24 -33.64666 -58.68857 30668 ft 451 kts 190°
2026-05-03 20:24 -33.67799 -58.69222 29885 ft 447 kts 190°
2026-05-03 20:25 -33.70889 -58.69585 29061 ft 444 kts 190°
2026-05-03 20:25 -33.73946 -58.69945 28327 ft 440 kts 190°
2026-05-03 20:25 -33.76983 -58.70304 27610 ft 436 kts 190°
2026-05-03 20:25 -33.79993 -58.70575 26906 ft 435 kts 185°
2026-05-03 20:26 -33.83022 -58.70294 26218 ft 439 kts 175°
2026-05-03 20:26 -33.85953 -58.69397 25549 ft 444 kts 166°
2026-05-03 20:26 -33.88827 -58.68026 24947 ft 443 kts 162°
2026-05-03 20:26 -33.91627 -58.66511 24415 ft 440 kts 160°
2026-05-03 20:27 -33.94420 -58.64952 23902 ft 445 kts 160°
2026-05-03 20:27 -33.97241 -58.63374 23332 ft 448 kts 160°
2026-05-03 20:27 -34.00056 -58.61797 22872 ft 444 kts 160°
2026-05-03 20:27 -34.01904 -58.60758 22606 ft 441 kts 160°
2026-05-03 20:28 -34.05597 -58.58678 22123 ft 436 kts 160°
2026-05-03 20:28 -34.08300 -58.57152 21803 ft 433 kts 160°
2026-05-03 20:28 -34.11022 -58.55613 21454 ft 432 kts 160°
2026-05-03 20:28 -34.13746 -58.54075 21078 ft 433 kts 160°
2026-05-03 20:29 -34.16467 -58.52539 20748 ft 432 kts 160°
2026-05-03 20:29 -34.19189 -58.51002 20468 ft 431 kts 160°
2026-05-03 20:29 -34.20982 -58.49990 20303 ft 429 kts 160°
2026-05-03 20:29 -34.23683 -58.48463 20048 ft 427 kts 160°
2026-05-03 20:30 -34.26374 -58.46942 19781 ft 426 kts 160°
2026-05-03 20:30 -34.29047 -58.45430 19518 ft 425 kts 160°
2026-05-03 20:30 -34.31670 -58.43946 19260 ft 423 kts 160°
2026-05-03 20:30 -34.35250 -58.41920 18915 ft 422 kts 160°
2026-05-03 20:31 -34.37906 -58.40417 18681 ft 421 kts 160°
2026-05-03 20:31 -34.39690 -58.39407 18512 ft 420 kts 160°
2026-05-03 20:31 -34.42334 -58.37910 18248 ft 419 kts 160°
2026-05-03 20:31 -34.44973 -58.36416 17997 ft 417 kts 160°
2026-05-03 20:32 -34.47564 -58.34952 17748 ft 416 kts 160°
2026-05-03 20:32 -34.50177 -58.33477 17501 ft 415 kts 160°
2026-05-03 20:32 -34.52783 -58.32006 17368 ft 410 kts 160°
2026-05-03 20:32 -34.55354 -58.30553 17338 ft 405 kts 160°
2026-05-03 20:33 -34.57862 -58.29131 17310 ft 399 kts 160°
2026-05-03 20:33 -34.60373 -58.27704 17270 ft 395 kts 160°
2026-05-03 20:33 -34.62864 -58.26283 17241 ft 390 kts 160°
2026-05-03 20:33 -34.65302 -58.24887 17188 ft 383 kts 160°
2026-05-03 20:34 -34.67655 -58.23532 16874 ft 376 kts 160°
2026-05-03 20:34 -34.70002 -58.22174 16426 ft 358 kts 160°
2026-05-03 20:34 -34.72155 -58.20912 15914 ft 338 kts 160°
2026-05-03 20:34 -34.74212 -58.19694 15409 ft 321 kts 160°
2026-05-03 20:35 -34.76174 -58.18526 14934 ft 308 kts 160°
2026-05-03 20:35 -34.78093 -58.17383 14524 ft 310 kts 160°
2026-05-03 20:35 -34.80060 -58.16224 14117 ft 318 kts 160°
2026-05-03 20:35 -34.82066 -58.15053 13666 ft 321 kts 160°
2026-05-03 20:36 -34.84084 -58.13883 13193 ft 323 kts 160°
2026-05-03 20:36 -34.86121 -58.12708 12722 ft 325 kts 160°
2026-05-03 20:36 -34.88171 -58.11532 12280 ft 326 kts 160°
2026-05-03 20:36 -34.90231 -58.10356 11846 ft 327 kts 160°
2026-05-03 20:37 -34.92300 -58.09180 11402 ft 325 kts 160°
2026-05-03 20:37 -34.94274 -58.08053 10899 ft 310 kts 160°
2026-05-03 20:37 -34.96179 -58.06962 10404 ft 297 kts 160°
2026-05-03 20:37 -34.97999 -58.05913 10058 ft 280 kts 160°
2026-05-03 20:38 -34.99805 -58.05347 9532 ft 265 kts 190°
2026-05-03 20:38 -35.01453 -58.06089 9103 ft 250 kts 225°
2026-05-03 20:38 -35.02584 -58.07673 8871 ft 251 kts 240°
2026-05-03 20:38 -35.03474 -58.09514 8624 ft 251 kts 251°
2026-05-03 20:39 -35.03924 -58.11551 8411 ft 248 kts 262°
2026-05-03 20:39 -35.04184 -58.13636 8187 ft 249 kts 264°
2026-05-03 20:39 -35.04423 -58.15738 7974 ft 250 kts 264°
2026-05-03 20:39 -35.04669 -58.17845 7766 ft 252 kts 264°
2026-05-03 20:40 -35.04925 -58.19961 7544 ft 253 kts 263°
2026-05-03 20:40 -35.05185 -58.22055 7332 ft 253 kts 263°
2026-05-03 20:40 -35.05453 -58.24166 7107 ft 250 kts 263°
2026-05-03 20:40 -35.05722 -58.26253 6891 ft 248 kts 263°
2026-05-03 20:41 -35.05990 -58.28315 6675 ft 245 kts 263°
2026-05-03 20:41 -35.06256 -58.30362 6470 ft 243 kts 263°
2026-05-03 20:41 -35.06522 -58.32393 6247 ft 242 kts 263°
2026-05-03 20:41 -35.06788 -58.34412 6045 ft 241 kts 263°
2026-05-03 20:42 -35.07053 -58.36438 5854 ft 242 kts 263°
2026-05-03 20:42 -35.07312 -58.38418 5665 ft 238 kts 263°
2026-05-03 20:42 -35.07570 -58.40399 5448 ft 234 kts 263°
2026-05-03 20:42 -35.07781 -58.42327 5229 ft 225 kts 273°
2026-05-03 20:43 -35.07340 -58.44091 5008 ft 216 kts 306°
2026-05-03 20:43 -35.06197 -58.45255 4750 ft 216 kts 330°
2026-05-03 20:43 -35.04769 -58.45830 4447 ft 217 kts 344°
2026-05-03 20:43 -35.03282 -58.46194 4173 ft 218 kts 346°
2026-05-03 20:44 -35.01825 -58.46538 3859 ft 206 kts 346°
2026-05-03 20:44 -35.00467 -58.46866 3579 ft 192 kts 346°
2026-05-03 20:44 -34.99204 -58.47174 3320 ft 176 kts 346°
2026-05-03 20:44 -34.98072 -58.47442 3128 ft 161 kts 345°
2026-05-03 20:45 -34.97029 -58.47755 2915 ft 149 kts 343°
2026-05-03 20:45 -34.96064 -58.48077 2714 ft 140 kts 343°
2026-05-03 20:45 -34.95149 -58.48393 2529 ft 138 kts 343°
2026-05-03 20:45 -34.94200 -58.48723 2362 ft 144 kts 342°
2026-05-03 20:47 -34.89490 -58.50369 1382 ft 141 kts 344°
2026-05-03 20:47 -34.88555 -58.50696 1192 ft 139 kts 344°
2026-05-03 20:47 -34.87642 -58.51016 1021 ft 133 kts 345°
2026-05-03 20:47 -34.86776 -58.51318 835 ft 126 kts 345°
2026-05-03 20:48 -34.85928 -58.51615 662 ft 130 kts 346°
2026-05-03 20:48 -34.85049 -58.51922 482 ft 133 kts 346°
2026-05-03 20:48 -34.84154 -58.52233 302 ft 135 kts 346°
2026-05-03 20:48 -34.83253 -58.52555 121 ft 135 kts 346°
2026-05-03 20:49 -34.82397 -58.52850 84 ft 109 kts 344°
2026-05-03 20:49 -34.81847 -58.53040 67 ft 56 kts 344°
2026-05-03 20:49 -34.81651 -58.53107 71 ft 9 kts 342°
2026-05-03 20:49 -34.81552 -58.53176 67 ft 17 kts 311°
2026-05-03 20:50 -34.81490 -58.53294 70 ft 15 kts 300°
2026-05-03 20:50 -34.81439 -58.53404 70 ft 15 kts 299°
2026-05-03 20:50 -34.81391 -58.53510 68 ft 12 kts 297°
2026-05-03 20:50 -34.81395 -58.53600 66 ft 11 kts 223°
2026-05-03 20:51 -34.81467 -58.53628 71 ft 11 kts 199°
2026-05-03 20:51 -34.81537 -58.53671 73 ft 12 kts 216°
2026-05-03 20:51 -34.81601 -58.53741 69 ft 13 kts 223°
2026-05-03 20:51 -34.81671 -58.53815 69 ft 13 kts 220°
2026-05-03 20:52 -34.81683 -58.53898 68 ft 11 kts 308°
2026-05-03 20:52 -34.81628 -58.53966 69 ft 10 kts 316°
2026-05-03 20:52 -34.81616 -58.53980 72 ft 0 kts 316°